CW4185 Weather Reports


time (UTC)temp
C
wind
direction
speed
KPH
gust
KPH
rain 1hr
cm
rain 24hr
cm
rain mn
cm
humidity
%
barometer
mb
20260831113146 25 58 6.4 8.0 0.00 0.00 0.51 96 1014.6
20260831112647 25 266 0.0 8.0 0.00 0.00 0.51 97 1014.6
20260831112146 25 4 3.2 4.8 0.00 0.00 0.51 97 1014.6
20260831111647 25 130 0.0 4.8 0.36 0.00 0.51 97 1014.6
20260831111146 25 89 0.0 4.8 0.89 0.00 0.51 96 1014.6
20260831110647 25 65 3.2 11.3 2.16 0.00 0.46 96 1014.9
20260831110147 25 45 3.2 12.9 1.63 0.00 0.30 95 1015.2
20260831105646 25 290 3.2 16.1 0.48 0.00 0.10 93 1015.2
20260831105149 26 144 12.9 20.9 0.23 0.00 0.05 90 1014.9
20260831104646 27 136 11.3 16.1 0.00 0.00 0.00 88 1014.6
20260831104146 27 185 0.0 4.8 0.00 0.00 0.00 87 1014.6
20260831103647 27 62 4.8 6.4 0.00 0.00 0.00 86 1014.6
20260831103146 27 57 3.2 4.8 0.00 0.00 0.00 86 1014.6
20260831102646 27 15 0.0 4.8 0.00 0.00 0.00 86 1014.6
20260831102146 27 52 4.8 6.4 0.00 0.00 0.00 86 1014.6
20260831101648 27 84 0.0 4.8 0.00 0.00 0.00 86 1014.2
20260831101147 27 37 1.6 3.2 0.00 0.00 0.00 85 1014.6
20260831100646 27 51 3.2 4.8 0.00 0.00 0.00 85 1014.6
20260831100148 27 52 4.8 4.8 0.00 0.00 0.00 86 1014.6
20260831095646 28 74 4.8 4.8 0.00 0.00 0.00 85 1014.6
20260831095146 28 17 4.8 6.4 0.00 0.00 0.00 85 1014.2
20260831094648 28 22 0.0 6.4 0.00 0.00 0.00 85 1014.2
20260831094147 28 84 3.2 6.4 0.00 0.00 0.00 85 1014.2
20260831093646 28 53 3.2 6.4 0.00 0.00 0.00 85 1014.2
20260831093147 28 55 4.8 9.7 0.00 0.00 0.00 85 1014.2
20260831092648 28 66 6.4 9.7 0.00 0.00 0.00 85 1013.9
20260831092146 28 61 6.4 8.0 0.00 0.00 0.00 84 1014.2
20260831091648 28 58 4.8 6.4 0.00 0.00 0.00 84 1014.2
20260831091146 28 80 3.2 9.7 0.00 0.00 0.00 84 1014.2
20260831090646 28 68 4.8 8.0 0.00 0.00 0.00 85 1014.2
20260831090147 28 71 3.2 11.3 0.00 0.00 0.00 85 1014.2
20260831085646 28 58 4.8 9.7 0.00 0.00 0.00 85 1013.9
20260831085146 28 65 6.4 9.7 0.00 0.00 0.00 85 1013.9
20260831084646 27 70 8.0 11.3 0.00 0.00 0.00 85 1014.2
20260831084147 27 74 6.4 9.7 0.00 0.00 0.00 85 1014.2
20260831083647 27 56 4.8 8.0 0.00 0.00 0.00 85 1014.2
20260831083146 27 61 9.7 9.7 0.00 0.00 0.00 85 1014.2
20260831082646 28 106 4.8 9.7 0.00 0.00 0.00 85 1014.2
20260831082146 28 66 3.2 6.4 0.00 0.00 0.00 84 1014.2
20260831081647 28 51 3.2 6.4 0.00 0.00 0.00 84 1014.2
20260831081146 28 70 3.2 8.0 0.00 0.00 0.00 84 1014.2
20260831080646 28 60 3.2 9.7 0.00 0.00 0.00 84 1014.2
20260831080146 28 88 3.2 6.4 0.00 0.00 0.00 84 1014.2
20260831075647 28 58 6.4 8.0 0.00 0.00 0.00 84 1013.9
20260831075147 28 69 4.8 8.0 0.00 0.00 0.00 84 1014.2
20260831074646 27 119 3.2 8.0 0.00 0.00 0.00 84 1014.2
20260831074147 27 74 4.8 6.4 0.00 0.00 0.00 85 1014.2
20260831073647 28 32 0.0 6.4 0.00 0.00 0.00 85 1014.2
20260831073146 28 70 4.8 9.7 0.00 0.00 0.00 85 1014.2
20260831072647 28 50 3.2 6.4 0.00 0.00 0.00 85 1014.2
20260831072151 28 58 8.0 11.3 0.00 0.00 0.00 85 1014.6
20260831071646 28 98 1.6 9.7 0.00 0.00 0.00 85 1014.2
20260831071146 28 57 6.4 12.9 0.00 0.00 0.00 85 1014.2
20260831070646 28 85 4.8 9.7 0.00 0.00 0.00 85 1014.2
20260831070147 28 58 11.3 16.1 0.00 0.00 0.00 85 1014.2
20260831065647 28 84 9.7 12.9 0.00 0.00 0.00 85 1014.2
20260831065146 28 88 4.8 12.9 0.00 0.00 0.00 85 1014.6
20260831064647 28 54 4.8 11.3 0.00 0.00 0.00 85 1014.6
20260831064147 28 72 8.0 11.3 0.00 0.00 0.00 85 1014.6
20260831063646 28 92 9.7 11.3 0.00 0.00 0.00 85 1014.6
20260831063146 28 217 3.2 8.0 0.00 0.00 0.00 84 1014.9
20260831062646 28 64 3.2 8.0 0.00 0.00 0.00 84 1014.9
20260831062146 28 77 3.2 12.9 0.00 0.00 0.00 84 1014.9
20260831061646 28 117 4.8 14.5 0.00 0.00 0.00 85 1015.2
20260831061146 28 47 6.4 6.4 0.00 0.00 0.00 85 1015.2
20260831060647 28 75 3.2 12.9 0.00 0.00 0.00 84 1015.2
20260831060148 28 81 4.8 12.9 0.00 0.00 0.00 84 1014.9
20260831055647 28 110 1.6 11.3 0.00 0.00 0.00 84 1015.2
20260831055146 28 143 11.3 11.3 0.00 0.00 0.00 84 1014.9
20260831054646 28 61 8.0 11.3 0.00 0.00 0.00 84 1015.2
20260831054146 28 76 8.0 11.3 0.00 0.00 0.00 85 1015.2
20260831053646 28 120 1.6 8.0 0.00 0.00 0.00 85 1015.2
20260831053146 28 123 3.2 9.7 0.00 0.00 0.00 85 1015.2
20260831052646 28 73 6.4 8.0 0.00 0.00 0.00 85 1015.2
20260831052147 28 67 9.7 17.7 0.00 0.00 0.00 84 1015.2
20260831051646 28 86 9.7 14.5 0.00 0.00 0.00 85 1015.2
20260831051148 28 70 8.0 14.5 0.00 0.00 0.00 85 1015.2
20260831050647 28 52 4.8 14.5 0.00 0.00 0.00 85 1015.2
20260831050147 28 68 8.0 11.3 0.00 0.00 0.00 85 1015.2
20260831045646 28 152 4.8 12.9 0.00 0.00 0.66 85 1015.2
20260831045146 28 57 11.3 12.9 0.00 0.00 0.66 85 1015.2
20260831044646 28 88 8.0 12.9 0.00 0.00 0.66 85 1015.2
20260831044147 28 84 4.8 16.1 0.00 0.00 0.66 85 1015.6
20260831043646 28 99 6.4 11.3 0.00 0.00 0.66 84 1015.2
20260831043146 28 79 4.8 14.5 0.00 0.00 0.66 84 1015.6
20260831042647 28 62 8.0 11.3 0.00 0.00 0.66 84 1015.6
20260831042146 28 82 3.2 9.7 0.00 0.00 0.66 84 1015.9
20260831041647 28 84 9.7 12.9 0.00 0.00 0.66 83 1015.6
20260831041147 28 84 3.2 6.4 0.00 0.00 0.66 83 1015.6
20260831040647 28 50 3.2 14.5 0.00 0.00 0.66 83 1015.6
20260831040154 28 50 12.9 16.1 0.00 0.00 0.66 83 1015.6
20260831035646 28 81 6.4 8.0 0.00 0.00 0.66 82 1015.6
20260831035147 28 39 4.8 8.0 0.00 0.00 0.66 82 1015.6
20260831034647 28 107 3.2 8.0 0.00 0.00 0.66 82 1015.6
20260831034147 28 80 8.0 9.7 0.00 0.00 0.66 82 1015.9
20260831033647 28 79 3.2 4.8 0.00 0.00 0.66 82 1015.6
20260831033147 28 50 6.4 16.1 0.00 0.00 0.66 81 1015.9
20260831032646 28 96 9.7 11.3 0.00 0.00 0.66 81 1015.9
20260831032147 28 222 1.6 6.4 0.00 0.00 0.66 81 1015.9
20260831031648 28 85 4.8 11.3 0.00 0.00 0.66 81 1015.9
20260831030711 28 63 4.8 14.5 0.00 0.00 0.66 81 1015.2
20260831030146 28 68 6.4 11.3 0.00 0.00 0.66 81 1015.6
20260831025646 28 69 6.4 11.3 0.00 0.00 0.66 81 1015.6
20260831025147 28 57 3.2 8.0 0.00 0.00 0.66 81 1015.6
20260831024646 28 71 9.7 14.5 0.00 0.00 0.66 80 1015.2
20260831024148 28 108 8.0 9.7 0.00 0.00 0.66 80 1015.6
20260831023646 28 72 3.2 6.4 0.00 0.00 0.66 80 1015.6
20260831023147 28 61 3.2 8.0 0.00 0.00 0.66 79 1015.6
20260831022646 28 77 3.2 11.3 0.00 0.00 0.66 79 1015.2
20260831022148 28 82 8.0 14.5 0.00 0.00 0.66 78 1015.2
20260831021647 28 62 11.3 16.1 0.00 0.00 0.66 78 1015.2
20260831021146 28 84 11.3 20.9 0.00 0.00 0.66 77 1015.2
20260831020646 28 64 14.5 14.5 0.00 0.00 0.66 79 1015.2
20260831020147 28 86 11.3 12.9 0.00 0.00 0.66 80 1015.2
20260831015647 28 38 14.5 20.9 0.00 0.00 0.66 80 1014.9
20260831015148 28 60 8.0 9.7 0.00 0.00 0.66 79 1014.9
20260831014647 28 68 4.8 11.3 0.00 0.00 0.66 79 1014.9
20260831014147 28 96 11.3 14.5 0.00 0.00 0.66 78 1014.9
20260831013647 28 53 9.7 14.5 0.00 0.00 0.66 78 1014.9
20260831013146 28 71 9.7 20.9 0.00 0.00 0.66 78 1014.6
20260831012647 28 94 8.0 17.7 0.00 0.00 0.66 78 1014.6
20260831012146 28 69 9.7 14.5 0.00 0.00 0.66 77 1014.6
20260831011648 28 51 8.0 17.7 0.00 0.00 0.66 78 1014.6
20260831011146 29 67 8.0 17.7 0.00 0.00 0.66 77 1014.6
20260831010647 28 79 12.9 16.1 0.00 0.00 0.66 77 1014.6
20260831010147 29 68 12.9 16.1 0.00 0.00 0.66 76 1014.2
20260831005646 29 80 4.8 11.3 0.00 0.00 0.66 76 1014.2
20260831005149 29 70 12.9 16.1 0.00 0.00 0.66 76 1014.2
20260831004646 29 68 8.0 17.7 0.00 0.00 0.66 75 1014.2
20260831004146 29 34 4.8 11.3 0.00 0.00 0.66 75 1014.2
20260831003646 29 62 9.7 14.5 0.00 0.00 0.66 75 1014.2
20260831003146 29 58 9.7 11.3 0.00 0.00 0.66 76 1014.2
20260831002647 29 72 3.2 12.9 0.00 0.00 0.66 76 1014.2
20260831002146 29 73 6.4 17.7 0.00 0.00 0.66 76 1014.2
20260831001647 29 91 4.8 17.7 0.00 0.00 0.66 76 1014.2
20260831001146 29 60 11.3 17.7 0.00 0.00 0.66 75 1014.2
20260831000646 30 65 14.5 24.1 0.00 0.00 0.66 74 1014.2
20260831000146 30 63 16.1 22.5 0.00 0.00 0.66 72 1014.2
20260830235646 30 51 12.9 20.9 0.00 0.00 0.66 72 1014.2
20260830235146 30 49 12.9 22.5 0.00 0.00 0.66 73 1014.2
20260830234647 30 32 8.0 17.7 0.00 0.00 0.66 74 1014.2
20260830234147 30 57 14.5 20.9 0.00 0.00 0.66 74 1014.2
20260830233646 30 67 16.1 17.7 0.00 0.00 0.66 74 1014.2
20260830233148 30 73 8.0 16.1 0.00 0.00 0.66 74 1014.2
20260830232647 30 38 11.3 17.7 0.00 0.00 0.66 74 1014.2
20260830232146 30 45 9.7 16.1 0.00 0.00 0.66 73 1014.2
20260830231646 30 40 6.4 17.7 0.00 0.00 0.66 74 1014.2
20260830231146 30 47 3.2 14.5 0.00 0.00 0.66 73 1014.2
20260830230646 30 62 12.9 17.7 0.00 0.00 0.66 73 1014.2
20260830230146 30 69 17.7 24.1 0.00 0.00 0.66 73 1014.2
20260830225645 30 62 6.4 20.9 0.00 0.00 0.66 73 1014.2
20260830225146 30 22 3.2 9.7 0.00 0.00 0.66 73 1014.2
20260830224646 30 50 4.8 17.7 0.00 0.00 0.66 73 1014.2
20260830224146 30 82 9.7 12.9 0.00 0.00 0.66 73 1014.2
20260830223646 30 68 17.7 19.3 0.00 0.00 0.66 72 1014.2
20260830223146 30 40 8.0 16.1 0.00 0.00 0.66 71 1014.2
20260830222646 30 73 9.7 20.9 0.00 0.00 0.66 71 1014.2
20260830222146 30 66 14.5 16.1 0.00 0.00 0.66 70 1014.2
20260830221646 30 65 4.8 17.7 0.00 0.00 0.66 69 1014.6
20260830221147 30 50 12.9 17.7 0.00 0.00 0.66 69 1014.2
20260830220646 30 51 12.9 16.1 0.00 0.00 0.66 69 1014.6
20260830220146 30 88 11.3 19.3 0.00 0.00 0.66 69 1014.6
20260830215645 30 84 12.9 14.5 0.00 0.00 0.66 70 1014.6
20260830215146 30 69 12.9 20.9 0.00 0.00 0.66 69 1014.6
20260830214647 30 65 9.7 17.7 0.00 0.00 0.66 69 1014.2
20260830214147 30 53 9.7 20.9 0.00 0.00 0.66 68 1014.6
20260830213646 30 64 14.5 17.7 0.00 0.00 0.66 68 1014.6
20260830213148 31 59 17.7 17.7 0.00 0.00 0.66 66 1014.6
20260830212646 31 74 11.3 17.7 0.00 0.00 0.66 67 1014.6
20260830212147 31 84 4.8 17.7 0.00 0.00 0.66 68 1014.6
20260830211646 30 62 8.0 14.5 0.00 0.00 0.66 68 1014.6
20260830211146 30 64 14.5 20.9 0.00 0.00 0.66 70 1014.6
20260830210646 30 91 6.4 19.3 0.00 0.00 0.66 71 1014.6
20260830210148 31 52 8.0 16.1 0.00 0.00 0.66 70 1014.6
20260830205646 30 70 16.1 22.5 0.00 0.00 0.66 70 1014.6
20260830205146 31 70 11.3 22.5 0.00 0.00 0.66 69 1014.6
20260830204646 31 32 8.0 19.3 0.00 0.00 0.66 70 1014.9
20260830204146 30 85 4.8 17.7 0.00 0.00 0.66 71 1014.6
20260830203646 31 40 12.9 27.4 0.00 0.00 0.66 70 1014.9
20260830203146 31 58 4.8 14.5 0.00 0.00 0.66 67 1014.6
20260830202647 31 72 14.5 19.3 0.00 0.00 0.66 66 1014.6
20260830202146 31 63 9.7 19.3 0.00 0.00 0.66 67 1014.6
20260830201646 31 84 8.0 11.3 0.00 0.00 0.66 66 1014.9
20260830201147 31 130 3.2 16.1 0.00 0.00 0.66 66 1014.9
20260830200647 31 85 6.4 17.7 0.00 0.00 0.66 66 1015.2
20260830200147 31 60 12.9 24.1 0.00 0.00 0.66 66 1015.2
20260830195646 31 35 4.8 12.9 0.00 0.00 0.66 66 1015.2
20260830195147 31 114 9.7 14.5 0.00 0.00 0.66 66 1015.2
20260830194646 31 70 9.7 12.9 0.00 0.00 0.66 66 1015.2
20260830194146 31 121 6.4 11.3 0.00 0.00 0.66 66 1015.2
20260830193647 32 10 3.2 12.9 0.00 0.00 0.66 65 1015.6
20260830193148 32 139 9.7 17.7 0.00 0.00 0.66 63 1015.6
20260830192646 32 134 11.3 12.9 0.00 0.00 0.66 63 1015.6
20260830192146 32 64 8.0 12.9 0.00 0.00 0.66 62 1015.6
20260830191646 32 101 6.4 17.7 0.00 0.00 0.66 63 1015.6
20260830191146 32 80 8.0 20.9 0.00 0.00 0.66 64 1015.6
20260830190646 32 52 17.7 22.5 0.00 0.00 0.66 63 1015.9
20260830190147 32 54 11.3 20.9 0.00 0.00 0.66 62 1015.6
20260830185647 32 26 4.8 17.7 0.00 0.00 0.66 63 1015.9
20260830185146 31 56 3.2 20.9 0.00 0.00 0.66 64 1015.9
20260830184646 31 46 14.5 24.1 0.00 0.00 0.66 64 1015.9
20260830184146 31 52 14.5 20.9 0.00 0.00 0.66 64 1015.9
20260830183646 31 50 8.0 24.1 0.00 0.00 0.66 64 1015.9
20260830183146 31 352 4.8 25.7 0.00 0.00 0.66 64 1015.9
20260830182646 31 61 14.5 27.4 0.00 0.00 0.66 66 1015.9
20260830182147 32 60 9.7 20.9 0.00 0.00 0.66 67 1015.9
20260830181646 31 30 11.3 16.1 0.00 0.00 0.66 69 1016.3
20260830181146 31 63 12.9 24.1 0.00 0.00 0.66 69 1016.3
20260830180647 31 50 9.7 22.5 0.00 0.00 0.66 72 1016.3
20260830180146 31 64 17.7 25.7 0.00 0.00 0.66 71 1016.3
20260830175646 31 71 20.9 20.9 0.00 0.00 0.66 71 1016.6
20260830175147 31 72 4.8 20.9 0.00 0.00 0.66 69 1016.6
20260830174646 31 358 3.2 24.1 0.00 0.00 0.66 67 1016.6
20260830174146 31 59 11.3 17.7 0.00 0.00 0.66 67 1016.6
20260830173647 31 29 6.4 25.7 0.00 0.00 0.66 67 1016.6
20260830173146 31 44 11.3 29.0 0.00 0.00 0.66 66 1016.9
20260830172647 31 47 17.7 22.5 0.00 0.00 0.66 65 1016.9
20260830172146 31 44 11.3 25.7 0.00 0.00 0.66 67 1016.9
20260830171646 30 73 12.9 20.9 0.00 0.00 0.66 73 1016.9
20260830171146 29 3 0.0 8.0 0.00 0.00 0.66 80 1016.9
20260830170649 29 332 4.8 8.0 0.00 0.00 0.66 84 1016.9
20260830170146 28 347 8.0 9.7 0.00 0.00 0.66 86 1016.9
20260830165646 28 350 6.4 11.3 0.00 0.00 0.66 85 1017.3
20260830165146 28 34 6.4 9.7 0.00 0.00 0.66 92 1016.9
20260830164646 27 327 8.0 8.0 0.00 0.00 0.66 92 1017.3
20260830164146 26 291 4.8 6.4 0.36 0.00 0.66 91 1016.9
20260830163646 26 320 4.8 4.8 1.98 0.00 0.66 93 1017.3
20260830163146 26 76 4.8 9.7 3.48 0.00 0.58 91 1017.3
20260830162647 28 76 9.7 20.9 2.46 0.00 0.41 86 1017.3
20260830162146 30 55 9.7 17.7 0.00 0.00 0.00 76 1017.3
20260830161646 30 56 3.2 14.5 0.00 0.00 0.00 76 1017.3
20260830161146 30 27 8.0 17.7 0.00 0.00 0.00 75 1016.9
20260830160647 30 21 6.4 14.5 0.00 0.00 0.00 77 1016.9
20260830160146 30 359 11.3 14.5 0.00 0.00 0.00 78 1016.9
20260830155646 30 52 16.1 17.7 0.00 0.00 0.00 78 1016.9
20260830155146 30 41 8.0 11.3 0.00 0.00 0.00 78 1016.9
20260830154647 30 34 8.0 16.1 0.00 0.00 0.00 79 1016.9
20260830154146 30 46 6.4 17.7 0.00 0.00 0.00 75 1016.9
20260830153646 30 36 6.4 14.5 0.00 0.00 0.00 76 1016.6
20260830153147 30 40 6.4 17.7 0.00 0.00 0.00 78 1016.9
20260830152646 30 352 4.8 14.5 0.00 0.00 0.00 78 1016.6
20260830152146 30 351 4.8 14.5 0.00 0.00 0.00 79 1016.9
20260830151647 30 34 4.8 9.7 0.00 0.00 0.00 80 1016.9
20260830151146 30 45 3.2 16.1 0.00 0.00 0.00 81 1016.9
20260830150646 29 360 6.4 16.1 0.00 0.00 0.00 81 1016.9
20260830150146 30 26 4.8 19.3 0.00 0.00 0.00 81 1016.6
20260830145647 30 25 8.0 14.5 0.00 0.00 0.00 81 1016.9
20260830145146 30 18 8.0 12.9 0.00 0.00 0.00 81 1016.9
20260830144647 29 56 9.7 14.5 0.00 0.00 0.00 80 1016.9
20260830144146 30 20 6.4 12.9 0.00 0.00 0.00 80 1016.6
20260830143646 30 35 9.7 12.9 0.00 0.00 0.00 79 1016.6
20260830143146 30 33 8.0 16.1 0.00 0.00 0.00 80 1016.6
20260830142646 29 36 9.7 17.7 0.00 0.00 0.00 82 1016.6
20260830142146 29 72 11.3 12.9 0.00 0.00 0.00 82 1016.6
20260830141646 29 38 12.9 14.5 0.00 0.00 0.00 83 1016.6
20260830141146 29 44 8.0 11.3 0.00 0.00 0.00 83 1016.6
20260830140647 29 28 11.3 14.5 0.00 0.00 0.00 84 1016.3
20260830140147 29 27 8.0 12.9 0.00 0.00 0.00 83 1016.6
20260830135646 29 17 4.8 9.7 0.00 0.00 0.00 82 1016.6
20260830135147 30 25 4.8 14.5 0.00 0.00 0.00 82 1016.6
20260830134647 29 14 4.8 11.3 0.00 0.00 0.00 81 1016.6
20260830134146 29 22 6.4 14.5 0.00 0.00 0.00 83 1016.6
20260830133646 29 37 8.0 16.1 0.00 0.00 0.00 82 1016.6
20260830133146 29 36 8.0 14.5 0.00 0.00 0.00 83 1016.6
20260830132646 28 61 16.1 17.7 0.00 0.00 0.00 84 1016.6
20260830132147 28 51 8.0 14.5 0.00 0.00 0.00 84 1016.6
20260830131646 28 7 6.4 14.5 0.00 0.00 0.00 84 1016.6
20260830131146 28 46 11.3 14.5 0.00 0.00 0.00 85 1016.3
20260830130646 28 27 8.0 12.9 0.00 0.00 0.00 86 1016.3
20260830130146 28 26 1.6 9.7 0.00 0.00 0.00 88 1016.3
20260830125646 28 344 0.0 9.7 0.00 0.00 0.00 88 1016.3
20260830125146 28 10 8.0 12.9 0.00 0.00 0.00 88 1016.3
20260830124647 28 25 8.0 12.9 0.00 0.00 0.00 88 1015.9
20260830124146 28 29 6.4 11.3 0.00 0.00 0.00 90 1015.9
20260830123646 27 49 3.2 9.7 0.00 0.00 0.00 90 1016.3
20260830123147 27 18 4.8 11.3 0.00 0.00 0.00 90 1016.3
20260830122647 27 22 14.5 16.1 0.00 0.00 0.00 90 1015.9
20260830122148 27 10 11.3 17.7 0.00 0.00 0.00 90 1015.9
20260830121646 27 37 11.3 12.9 0.00 0.00 0.00 91 1015.9
20260830121147 27 360 3.2 11.3 0.00 0.00 0.00 91 1015.9
20260830120646 27 343 8.0 16.1 0.00 0.00 0.00 90 1015.9
20260830120147 27 31 9.7 11.3 0.00 0.00 0.00 89 1016.3
20260830115646 27 24 8.0 11.3 0.00 0.00 0.00 89 1015.9
20260830115146 27 34 4.8 11.3 0.00 0.00 0.00 88 1015.9
20260830114646 27 67 3.2 9.7 0.00 0.00 0.00 87 1015.9
20260830114146 27 23 1.6 9.7 0.00 0.00 0.00 85 1015.9
20260830113646 27 58 4.8 9.7 0.00 0.00 0.00 86 1015.6